Temperature
14 14 14 14 14 14 14 14 14 13 13 13 13 13 13 13 13 13 13 13 13 13 14 14 14 14 14 14 14 14 14 14 15 15 15 15 15 15
14 14 14 14 14 14 14 14 14 14 13 12 12 13 13 13 13 13 13 13 13 13 13 13 13 13 14 14 14 14 14 14 14 14 14 14 15 15
14 14 14 14 14 14 14 14 13 13 13 12 12 12 13 13 13 13 13 13 13 13 13 13 13 13 13 13 13 13 13 13 14 14 14 14 14 14
14 14 14 14 14 14 13 13 13 13 13 12 12 12 12 12 12 13 13 13 13 13 13 13 13 13 13 13 13 13 13 13 13 13 13 13 14 14
13 13 13 13 13 13 13 13 13 13 12 12 12 12 12 12 12 12 12 12 12 12 12 12 12 12 12 12 12 12 12 12 12 13 13 13 13 13
13 13 13 13 13 13 13 12 12 12 12 12 12 12 12 12 12 12 12 12 12 12 12 12 12 12 12 12 12 12 12 12 12 12 12 12 13 13
13 13 13 13 12 12 12 12 12 12 12 12 12 11 11 11 11 11 11 11 11 11 11 11 11 12 11 11 11 11 11 11 11 12 12 12 12 12
13 13 12 12 12 12 12 12 12 12 12 11 11 11 11 11 11 10 10 10 11 11 11 11 11 11 11 11 11 11 11 11 11 11 11 11 11 11
13 12 12 12 12 12 12 12 11 11 11 11 11 11 10 10 10 10 10 10 10 9 10 10 11 11 10 10 10 10 10 10 10 10 11 11 11 11
12 12 12 12 12 12 12 11 11 11 11 11 10 10 10 10 9 9 9 9 9 9 9 9 9 9 10 10 10 10 10 10 10 10 10 10 10 10
12 12 12 12 12 11 11 11 11 11 10 10 10 10 9 9 9 9 9 9 9 9 9 8 8 8 9 9 9 9 9 9 9 9 9 9 9 9
12 12 12 11 11 11 11 11 11 11 10 10 10 10 10 9 9 9 8 8 8 8 8 7 7 7 7 8 8 8 8 8 8 8 8 8 8 8
12 12 11 11 11 11 11 10 10 10 10 10 10 10 9 9 9 8 8 8 7 7 7 6 6 6 6 6 7 7 7 7 7 7 7 7 7 7
12 11 11 11 11 11 10 10 10 10 9 9 9 9 9 9 8 8 8 7 7 7 7 6 6 6 5 5 5 6 6 6 6 6 6 6 6 6
11 11 11 10 10 10 10 10 9 9 9 9 9 8 8 8 8 7 7 7 7 7 6 6 6 5 5 5 5 5 5 5 5 5 5 5 5 5
11 11 10 10 10 10 10 9 9 9 8 8 8 8 8 7 7 7 7 7 7 7 6 6 6 5 5 5 4 5 5 4 4 4 4 4 5 5
11 10 10 10 10 10 9 9 9 8 8 8 8 7 7 7 7 7 6 6 6 6 6 6 5 5 5 4 4 4 4 4 4 4 3 3 4 4
10 10 10 10 9 9 9 9 8 8 8 8 7 7 7 7 6 6 6 6 5 5 5 5 4 4 4 4 4 3 3 3 3 3 3 2 3 3
10 10 10 9 9 9 8 8 8 8 7 7 7 7 6 6 6 5 5 5 5 5 4 4 4 3 3 3 3 3 3 3 2 2 2 2 2 2
9 9 9 9 9 8 8 8 8 7 7 7 7 6 6 6 5 5 5 4 4 4 4 4 3 3 2 2 2 3 3 2 2 2 2 2 2 2
9 9 9 8 8 8 8 7 7 7 7 6 6 6 6 5 5 5 4 4 4 3 3 3 3 3 2 2 2 2 2 2 1 1 1 1 1 1
9 9 8 8 8 8 7 7 7 6 6 6 6 6 5 5 5 4 4 4 3 3 3 3 3 2 2 2 1 1 2 2 1 1 1 1 0 1
9 9 8 8 8 7 7 7 6 6 6 6 5 5 5 4 4 4 3 3 3 2 2 2 2 2 1 1 1 1 1 1 1 1 1 1 1 1
Wind_Speed
5 6 5 4 4 3 3 3 4 2 3 4 4 5 9 10 12 12 12 14 15 15 15 15 15 15 15 15 14 13 12 11 9 8 7 7 7 8
4 6 5 4 4 4 3 3 3 4 2 2 2 3 7 9 12 12 12 14 14 14 14 14 14 15 14 14 14 13 13 13 12 10 9 8 8 8
5 6 5 4 4 4 4 4 4 4 4 1 2 3 5 6 9 12 12 13 13 14 15 15 15 14 14 14 14 13 13 13 13 13 12 11 10 10
5 5 5 5 5 5 5 5 4 3 3 2 3 4 4 5 5 6 10 11 12 14 15 15 15 15 15 14 13 13 13 12 12 13 13 13 13 12
4 5 4 6 5 4 5 5 3 4 3 2 2 3 3 3 4 5 6 7 10 13 14 14 15 15 15 15 15 14 14 14 13 13 13 14 14 14
4 4 4 4 4 4 4 4 4 4 4 3 3 3 3 3 3 4 5 5 5 9 12 13 14 15 15 15 15 15 15 15 15 15 15 15 15 15
4 3 3 4 5 4 4 3 4 3 3 3 2 3 3 3 4 3 4 4 4 4 5 7 9 10 12 14 15 16 16 16 15 16 16 16 17 16
3 2 3 4 5 6 6 5 4 3 2 1 1 1 3 3 2 2 3 4 4 4 4 5 5 4 8 10 14 16 16 17 17 18 17 17 17 17
3 2 2 2 4 3 5 6 5 4 2 3 1 2 2 2 2 3 3 2 3 4 3 4 4 5 8 11 14 15 15 16 18 19 19 18 18 18
2 2 2 1 1 3 3 3 3 3 1 1 2 3 3 3 2 2 3 3 4 4 1 2 4 4 7 10 13 14 15 16 17 18 18 19 19 18
1 1 2 2 2 3 3 2 2 3 4 3 3 3 5 6 4 1 2 2 4 4 1 1 3 5 5 5 10 13 15 17 18 18 18 19 18 18
0 0 2 2 2 2 3 2 1 3 3 4 5 6 6 6 6 1 1 1 2 3 3 1 3 4 4 4 5 10 13 16 17 17 18 18 18 14
2 1 2 2 1 2 2 2 3 3 2 2 3 4 4 4 4 4 2 2 2 4 4 1 2 2 3 5 5 6 9 10 12 13 16 18 18 14
3 3 3 4 2 2 2 3 4 3 1 1 2 3 3 4 4 5 6 5 5 7 8 4 3 4 4 6 6 5 6 9 8 8 11 15 16 17
4 5 5 5 3 3 4 4 3 1 1 1 3 4 3 4 4 4 5 6 7 8 9 7 4 4 4 6 6 6 7 6 5 6 7 8 8 9
3 4 4 4 3 3 4 3 2 2 3 3 4 4 3 3 3 3 3 3 4 5 8 9 8 5 5 7 7 9 7 6 6 8 8 8 9 11
3 1 1 1 2 3 3 3 3 2 3 3 4 4 4 4 4 3 3 2 3 5 5 5 8 9 7 7 8 9 8 8 8 8 8 10 9 9
4 3 4 4 5 5 5 4 4 4 5 5 4 5 5 5 5 4 3 3 5 6 6 5 5 5 5 6 9 9 8 8 9 8 7 10 13 10
5 5 6 6 6 6 6 5 5 6 5 5 5 5 5 5 5 5 5 5 6 6 6 5 4 4 9 12 9 9 8 9 9 9 8 9 13 12
5 6 7 7 7 7 7 6 6 6 5 5 6 6 6 5 5 6 6 6 7 7 7 5 5 6 8 11 12 10 11 9 9 11 11 11 11 14
7 7 7 7 7 7 7 7 7 6 6 6 6 6 6 6 6 7 7 8 8 7 8 8 8 11 8 6 9 10 8 12 14 11 12 13 14 13
8 8 8 7 7 7 7 6 7 7 7 6 7 7 6 6 7 8 7 7 7 8 9 9 8 6 5 9 13 14 14 11 13 20 20 19 13 12
8 8 8 7 7 6 6 7 8 7 7 7 7 7 6 6 6 7 7 7 7 9 9 9 8 6 8 9 12 14 16 15 12 12 12 18 22 26
Wind_Direction
65 65 60 45 48 55 76 114 127 94 20 347 355 348 9 25 26 33 33 34 36 36 36 38 37 35 32 30 25 21 18 14 10 3 357 350 344 339
63 67 57 45 49 50 60 69 95 127 107 335 331 328 3 21 23 27 27 27 28 28 28 30 31 29 26 23 20 18 15 11 7 2 359 350 342 335
59 68 59 52 57 47 55 64 69 97 112 343 337 344 10 13 11 19 20 19 17 21 24 23 21 20 21 20 18 17 14 12 9 4 356 349 339 332
71 69 56 63 54 47 57 61 64 80 115 74 351 357 5 359 4 10 14 17 17 16 19 20 19 18 17 15 13 12 11 8 4 1 355 350 344 336
92 86 73 74 65 57 62 62 56 62 74 85 9 350 350 356 0 360 5 4 12 15 15 15 14 14 13 12 10 8 6 3 358 355 351 346 343 338
85 88 87 90 98 88 77 71 72 63 56 60 27 355 344 338 6 358 351 346 348 3 6 7 8 10 9 8 6 4 2 360 357 354 351 348 343 339
72 73 79 90 95 104 100 94 85 74 61 54 24 2 347 351 348 335 341 329 328 348 349 352 356 360 360 1 1 360 359 358 358 353 347 343 340 336
95 69 56 68 78 84 90 91 97 100 101 87 28 346 314 311 315 335 341 353 332 328 346 330 347 338 344 353 355 355 356 356 355 351 344 338 335 332
126 116 86 77 83 83 68 60 51 58 102 153 161 256 273 281 313 331 329 321 289 296 339 321 328 326 329 340 348 352 351 349 347 345 343 340 337 332
137 149 141 134 136 119 89 51 22 4 0 97 192 237 248 262 239 250 274 297 294 297 322 299 311 310 316 321 333 342 342 339 337 336 336 335 332 329
138 147 151 160 183 136 110 74 356 330 337 341 327 323 326 326 330 354 343 351 324 311 314 278 298 307 304 302 320 333 334 331 329 329 330 328 327 326
119 234 184 186 202 162 146 152 290 296 314 333 341 340 339 336 336 326 220 287 296 300 295 305 301 325 315 297 310 319 321 321 322 323 324 323 322 323
186 228 252 235 212 195 183 200 245 269 293 310 319 321 329 331 327 320 270 204 235 263 272 257 281 294 275 293 297 298 304 308 310 314 318 316 315 313
203 220 240 251 251 253 246 260 275 297 301 313 314 309 310 307 302 305 299 279 253 255 273 261 248 266 283 294 296 295 296 297 294 300 307 309 309 308
219 226 232 244 256 270 279 282 289 275 255 271 274 273 269 273 286 301 304 300 293 286 286 275 252 262 258 274 285 289 300 296 283 292 297 296 295 300
233 248 250 250 247 260 281 289 265 235 226 237 254 264 273 280 278 276 283 293 302 299 298 292 276 259 271 271 277 287 289 286 293 294 292 291 293 289
205 218 242 257 263 271 273 268 260 258 251 245 250 263 270 270 273 272 265 274 278 288 298 298 293 280 261 267 282 281 284 287 287 290 294 295 290 286
185 211 230 235 241 247 253 261 259 253 250 248 249 251 257 262 269 272 262 266 277 281 284 289 302 311 307 279 245 268 278 282 288 286 281 288 292 289
201 224 232 236 240 242 242 243 248 250 246 244 249 252 254 257 262 269 270 272 275 277 279 280 284 289 302 303 287 253 267 284 289 290 283 280 286 289
219 229 236 239 240 241 241 243 248 252 249 248 249 252 250 252 259 264 265 265 273 279 284 279 269 267 274 286 292 286 267 266 283 290 292 288 283 280
229 235 237 239 241 241 242 243 244 247 248 244 247 248 249 249 256 259 261 264 267 274 279 280 272 270 272 282 288 287 278 264 266 278 289 293 295 294
231 235 239 240 240 241 242 243 246 248 248 246 246 247 247 246 252 257 259 264 267 269 274 280 283 284 277 281 287 291 295 293 283 280 276 273 279 284
234 236 238 239 240 241 243 245 246 249 246 246 247 248 248 250 252 254 259 263 268 274 281 288 290 285 280 279 285 290 293 298 299 298 292 283 275 274
Height
1564 1564 1564 1563 1563 1563 1563 1563 1563 1562 1562 1562 1561 1560 1559 1558 1556 1555 1553 1552 1551 1550 1548 1547 1546 1545 1545 1544 1543 1543 1542 1542 1542 1542 1542 1542 1541 1541
1566 1566 1565 1565 1564 1564 1564 1564 1564 1563 1563 1563 1562 1561 1560 1559 1557 1556 1554 1553 1552 1550 1549 1548 1547 1546 1545 1544 1543 1542 1542 1541 1540 1540 1540 1539 1539 1538
1567 1567 1566 1566 1565 1565 1565 1564 1564 1564 1563 1563 1563 1562 1560 1559 1557 1556 1554 1553 1552 1550 1549 1547 1546 1545 1544 1543 1542 1541 1540 1539 1539 1538 1538 1537 1536 1536
1568 1568 1567 1567 1566 1566 1565 1565 1565 1564 1564 1563 1562 1561 1560 1559 1557 1556 1554 1553 1552 1550 1548 1547 1546 1544 1543 1542 1541 1540 1539 1538 1537 1536 1535 1534 1533 1533
1569 1568 1568 1567 1567 1566 1566 1566 1565 1565 1564 1563 1562 1561 1560 1559 1557 1556 1554 1553 1551 1550 1548 1546 1545 1543 1542 1541 1539 1538 1537 1536 1534 1533 1532 1531 1530 1529
1569 1569 1568 1568 1567 1567 1566 1566 1565 1565 1564 1563 1562 1561 1559 1558 1557 1555 1553 1552 1550 1549 1547 1545 1544 1542 1540 1539 1537 1536 1534 1533 1532 1530 1529 1528 1526 1525
1569 1569 1568 1568 1568 1567 1567 1566 1565 1564 1563 1562 1561 1560 1558 1557 1555 1554 1552 1550 1549 1547 1545 1544 1542 1540 1539 1537 1535 1533 1532 1530 1528 1527 1525 1523 1522 1521
1569 1569 1568 1568 1567 1567 1566 1566 1565 1564 1562 1561 1560 1559 1557 1556 1555 1553 1551 1548 1546 1546 1543 1542 1541 1538 1536 1535 1533 1531 1529 1526 1524 1523 1521 1519 1517 1516
1568 1568 1568 1567 1567 1566 1565 1565 1564 1563 1562 1561 1559 1558 1556 1555 1553 1551 1549 1548 1546 1544 1542 1539 1538 1536 1534 1532 1530 1528 1525 1523 1520 1518 1516 1514 1512 1510
1567 1567 1566 1566 1566 1565 1564 1563 1562 1561 1560 1559 1558 1556 1555 1553 1552 1550 1548 1546 1544 1542 1540 1537 1534 1532 1530 1529 1527 1524 1522 1519 1516 1513 1511 1509 1506 1504
1566 1565 1565 1564 1564 1563 1562 1561 1560 1559 1558 1557 1556 1554 1553 1551 1550 1548 1545 1543 1540 1539 1537 1534 1531 1528 1525 1524 1522 1520 1517 1514 1511 1509 1506 1503 1500 1498
1564 1563 1563 1562 1562 1561 1560 1559 1558 1557 1556 1555 1554 1552 1551 1549 1547 1545 1543 1541 1538 1536 1534 1531 1528 1525 1520 1518 1517 1515 1512 1509 1506 1503 1500 1497 1494 1491
1561 1561 1560 1560 1559 1559 1558 1557 1555 1554 1553 1552 1550 1549 1548 1546 1544 1543 1541 1538 1536 1533 1532 1529 1525 1522 1519 1514 1511 1509 1507 1503 1500 1497 1495 1492 1489 1486
1558 1558 1558 1557 1557 1556 1555 1554 1553 1551 1550 1548 1547 1545 1544 1542 1541 1539 1537 1535 1533 1531 1528 1526 1522 1519 1515 1510 1505 1502 1501 1498 1494 1490 1487 1484 1482 1479
1555 1555 1554 1554 1553 1552 1551 1550 1549 1548 1546 1545 1543 1542 1540 1538 1536 1535 1533 1531 1529 1527 1524 1522 1519 1515 1511 1507 1501 1497 1493 1490 1488 1484 1480 1476 1473 1471
1551 1551 1551 1550 1549 1548 1547 1546 1545 1544 1542 1541 1539 1538 1536 1534 1532 1530 1527 1525 1522 1520 1519 1517 1513 1510 1505 1501 1497 1492 1489 1485 1480 1477 1472 1468 1466 1463
1547 1546 1546 1545 1544 1543 1543 1542 1541 1539 1538 1536 1534 1533 1531 1529 1527 1525 1522 1519 1517 1513 1511 1509 1507 1504 1500 1496 1491 1486 1482 1478 1474 1470 1465 1459 1456 1454
1542 1541 1540 1540 1539 1538 1537 1536 1535 1534 1533 1531 1529 1528 1526 1523 1521 1519 1517 1514 1511 1508 1505 1502 1499 1495 1491 1487 1486 1480 1475 1471 1466 1462 1458 1452 1445 1443
1536 1535 1534 1534 1533 1533 1532 1531 1530 1529 1527 1526 1524 1522 1520 1518 1516 1513 1511 1508 1505 1502 1499 1496 1493 1489 1484 1478 1474 1475 1469 1463 1459 1453 1449 1445 1438 1432
1529 1529 1528 1528 1527 1526 1526 1524 1523 1522 1521 1519 1518 1516 1514 1512 1510 1507 1505 1502 1499 1495 1492 1490 1487 1484 1479 1474 1466 1462 1462 1457 1451 1445 1439 1434 1428 1424
1523 1523 1522 1522 1521 1520 1519 1518 1517 1515 1514 1513 1511 1509 1508 1505 1503 1501 1498 1495 1492 1489 1485 1482 1480 1477 1472 1467 1460 1453 1451 1450 1445 1439 1432 1425 1418 1413
1516 1516 1515 1515 1514 1513 1512 1511 1509 1508 1507 1505 1503 1502 1500 1498 1496 1493 1491 1488 1485 1482 1478 1474 1471 1468 1464 1459 1452 1445 1440 1437 1434 1430 1425 1420 1414 1405
1509 1509 1508 1508 1507 1506 1505 1503 1502 1500 1499 1498 1496 1494 1493 1491 1488 1486 1483 1481 1477 1474 1470 1466 1462 1459 1455 1451 1444 1438 1432 1427 1422 1416 1412 1409 1406 1400